RH
80 78 77 78 78 76 78 75 74 72 72 66 62 60 58 64 69 75 80 79 78 77 78 79 80 78 79 79 80 79 81 78 71 68 76 93 92 92 96 95 90 89 88
81 80 80 80 82 77 77 76 77 77 76 70 64 63 65 70 70 73 74 81 81 80 80 79 79 80 79 78 78 78 80 78 77 77 77 86 93 93 93 96 95 92 88
79 81 83 86 84 78 75 77 78 78 76 68 69 69 71 70 74 78 79 79 78 80 79 79 81 81 81 81 80 80 79 79 78 77 76 78 82 85 92 92 95 94 90
76 80 80 86 82 79 79 79 82 78 78 80 78 79 74 72 72 74 76 78 76 73 77 78 80 78 80 80 80 80 80 79 77 76 76 76 78 78 80 88 91 92 95
75 79 81 84 80 80 82 79 82 83 83 83 72 81 78 78 75 68 73 75 76 77 75 78 78 78 78 80 81 80 79 79 78 78 76 76 77 78 79 79 82 92 90
76 79 80 81 78 81 81 82 81 84 85 88 64 74 79 81 82 84 81 71 74 78 78 77 77 72 78 79 78 82 83 81 79 79 78 78 77 76 77 75 82 80 91
77 78 80 82 81 82 82 79 84 84 82 87 78 74 76 77 86 89 84 85 78 77 80 77 78 71 71 77 77 81 84 79 81 80 78 78 79 79 76 76 78 77 78
73 71 79 82 81 81 80 82 81 87 88 88 86 91 92 88 79 71 88 84 90 80 77 67 70 70 70 72 73 77 78 81 81 81 79 78 78 80 77 78 79 78 81
72 75 77 80 82 84 85 87 86 84 90 88 89 87 88 92 95 86 77 94 88 85 79 68 71 69 68 75 78 76 76 78 82 82 82 81 80 81 81 80 76 76 79
71 74 76 78 81 85 83 83 80 88 88 90 87 76 84 90 95 91 83 79 80 76 86 76 81 78 69 78 74 75 74 76 74 80 82 82 83 82 82 82 81 80 78
69 69 73 74 80 85 84 84 85 86 87 91 93 92 91 89 92 95 96 89 84 80 82 81 80 86 84 80 70 72 70 72 75 76 80 81 83 84 84 83 83 81 80
78 73 70 75 77 79 84 88 88 86 89 90 90 90 92 95 94 95 96 94 78 92 90 90 85 87 82 87 82 76 75 69 71 73 75 78 81 83 85 86 84 85 85
78 75 73 75 76 79 82 85 86 88 90 92 90 93 90 90 87 88 92 95 91 90 93 89 82 87 71 87 91 76 78 73 69 71 67 68 73 78 82 85 87 86 85
78 75 76 77 77 80 83 84 88 87 90 92 90 90 91 90 88 91 95 96 92 89 93 92 86 84 84 90 86 81 88 71 69 65 65 65 66 67 76 81 84 88 87
70 77 80 83 84 84 84 86 87 88 88 92 93 93 95 96 95 94 94 92 95 92 89 96 93 90 83 89 87 86 89 68 68 66 65 68 67 66 67 76 80 84 87
77 80 83 84 85 87 86 84 88 88 85 90 89 90 92 92 92 93 94 96 94 94 93 89 94 93 88 70 79 90 89 69 62 66 72 66 67 66 66 67 74 77 79
79 82 84 85 86 87 86 87 89 87 86 88 90 88 90 89 92 94 94 96 96 97 96 95 94 87 88 87 84 86 84 88 73 67 69 67 66 66 65 65 66 70 74
82 86 87 87 87 90 91 90 89 90 89 88 91 86 87 63 85 86 88 90 94 96 97 99 94 84 88 80 87 88 78 71 76 67 68 69 68 67 65 63 63 64 67
88 89 90 91 90 93 93 93 84 79 85 91 91 92 92 83 92 94 91 90 92 74 88 96 98 97 94 84 82 79 77 86 45 67 67 76 71 68 67 65 63 63 63
91 94 95 95 95 94 91 90 90 91 90 90 91 88 88 88 89 93 96 97 95 91 87 95 98 98 99 94 96 96 93 95 75 50 72 70 79 76 72 67 63 62 62
88 93 93 95 95 91 82 83 79 91 91 93 95 94 89 76 67 66 74 95 93 95 97 96 97 98 99 98 99 98 100 98 98 86 94 95 93 91 93 88 64 62 62
85 85 86 85 92 74 72 72 74 80 82 84 85 82 80 77 64 62 64 66 78 91 94 97 98 98 99 99 99 99 99 99 99 92 97 97 91 95 96 86 60 60 61
84 85 86 89 89 81 78 79 77 87 88 86 75 67 59 62 74 71 63 64 65 65 85 81 92 97 98 97 93 92 96 94 99 95 97 98 91 96 94 90 62 62 62
84 87 92 87 78 72 72 73 77 76 76 75 72 73 74 76 68 76 70 72 77 77 83 76 81 89 80 79 81 73 78 78 90 81 79 92 92 96 94 84 65 66 65
83 86 84 77 76 78 74 71 67 68 70 73 67 70 72 75 64 62 65 67 71 79 68 84 72 64 65 66 74 76 78 80 88 97 96 90 94 97 96 98 76 64 69
80 81 69 74 73 81 73 69 68 66 73 75 74 66 66 72 61 62 68 72 80 89 92 86 87 88 87 86 86 90 91 86 96 97 95 94 96 98 96 96 97 82 83
Wind_Speed
4 4 5 4 4 4 4 5 5 5 5 6 6 6 6 6 6 4 5 24 23 24 25 24 25 23 23 25 25 24 24 20 16 14 12 14 14 16 14 14 17 19 19
4 5 5 5 5 4 4 4 4 4 5 5 6 6 6 8 10 10 7 11 24 23 23 22 22 24 25 24 24 24 24 24 22 21 18 14 14 15 12 12 15 19 21
6 6 5 4 4 4 6 5 5 4 5 5 6 6 6 11 11 11 9 8 9 21 21 22 23 22 23 22 23 23 23 23 23 22 20 20 19 15 16 16 15 16 20
6 6 4 5 4 4 4 4 4 4 4 4 4 5 7 10 11 11 10 8 8 8 14 20 22 21 22 23 23 23 23 22 21 21 20 19 20 19 17 16 18 18 17
6 6 5 4 5 4 4 3 4 3 3 3 5 7 8 9 9 9 11 11 11 10 8 16 18 21 22 24 24 24 25 24 23 21 20 19 19 20 20 19 18 19 20
6 6 5 5 5 4 4 3 4 4 3 3 9 9 8 8 8 8 8 9 10 11 10 11 9 11 21 23 24 25 24 25 24 23 23 21 19 18 20 18 19 18 18
6 6 4 5 5 4 4 3 2 6 8 4 5 8 8 8 8 7 6 7 9 9 10 10 8 9 10 21 24 26 26 24 25 24 23 23 23 20 18 19 19 20 21
6 6 5 5 5 4 5 5 3 3 4 5 3 2 4 2 6 7 4 7 8 7 10 13 12 12 11 8 17 25 25 25 26 25 25 24 24 23 20 20 21 22 23
6 6 5 5 5 3 4 4 4 5 4 4 7 3 2 3 3 2 6 5 7 6 6 10 10 12 10 8 11 16 24 26 26 26 26 25 25 25 25 22 20 20 21
5 6 5 5 5 3 5 4 4 4 4 4 3 7 7 3 3 2 3 4 6 7 5 6 6 8 9 6 14 19 22 24 25 26 26 27 27 26 26 25 24 22 22
5 5 6 6 5 4 4 5 6 6 5 4 3 2 5 5 5 3 2 3 2 5 5 6 6 7 7 7 6 12 21 22 24 25 26 27 27 28 27 27 27 25 24
3 5 5 5 5 5 5 4 6 7 6 6 5 5 3 3 1 3 4 1 1 4 4 4 6 6 7 7 10 14 18 20 23 24 25 26 27 27 28 28 27 27 26
3 4 4 4 3 4 5 6 7 6 6 5 5 4 4 3 2 2 2 1 2 2 2 5 5 5 7 6 8 13 15 18 20 22 24 25 25 26 27 27 28 28 27
4 5 5 5 6 6 6 6 5 5 6 5 6 5 3 3 3 2 2 1 2 2 3 3 3 5 6 6 12 14 7 16 17 20 21 23 24 25 25 27 27 28 28
5 5 6 6 7 7 8 8 6 6 7 5 5 5 3 3 4 3 3 2 2 1 3 4 4 6 6 5 10 8 6 13 16 17 19 22 24 25 25 25 26 27 28
6 7 7 7 8 7 7 9 6 5 8 4 5 7 5 3 4 4 4 4 4 2 3 2 4 3 6 7 10 8 8 13 16 16 15 20 22 23 24 25 25 26 27
8 8 8 8 7 8 7 8 7 6 8 6 5 7 6 4 4 4 4 4 4 3 2 3 3 4 6 7 9 8 8 5 7 16 16 19 20 21 23 24 25 25 26
7 9 8 9 7 6 6 7 7 6 7 7 6 8 6 6 7 6 4 5 4 4 3 2 4 5 3 9 5 6 7 7 5 13 17 17 19 20 22 24 24 25 25
8 8 8 8 8 6 7 6 8 8 8 6 7 6 5 7 6 4 5 4 3 6 6 3 1 2 2 5 5 5 7 6 7 14 16 15 17 19 21 23 24 25 25
9 7 7 6 6 6 8 8 7 7 7 7 5 5 6 7 7 6 5 3 4 6 5 3 3 2 1 4 2 3 4 3 6 8 10 15 14 16 20 21 24 24 25
8 8 9 7 6 7 6 9 9 7 8 7 3 2 5 9 12 9 4 1 5 4 3 3 3 2 3 4 2 4 2 3 2 7 4 4 5 6 7 12 17 23 24
9 10 9 10 9 6 17 16 10 8 7 7 6 6 7 9 9 12 11 13 8 4 2 2 1 2 4 2 3 2 2 3 4 4 3 4 6 5 6 7 22 23 24
10 10 10 9 6 6 16 16 15 6 6 6 5 5 7 5 4 4 9 11 10 9 3 2 2 2 1 2 3 3 2 2 1 4 3 4 5 4 6 7 23 23 23
10 10 9 8 7 5 12 14 17 10 8 6 5 6 6 5 6 7 6 5 4 3 3 0 2 2 1 2 3 5 4 5 1 1 5 3 3 3 4 6 21 22 23
9 9 8 9 8 6 12 21 15 10 9 7 6 6 6 6 8 11 5 6 4 5 6 13 10 12 12 12 10 4 6 5 2 2 3 2 3 3 3 3 7 21 21
10 8 9 9 12 7 14 19 14 8 10 7 6 7 12 8 10 10 6 4 5 3 3 5 4 6 8 8 10 5 4 4 3 3 3 2 3 3 4 3 3 5 6
Wind_Direction
87 78 70 69 61 58 50 37 30 26 29 24 25 26 25 37 54 57 47 55 53 50 49 45 41 37 38 32 24 18 16 13 355 336 317 348 339 347 269 243 222 209 205
91 84 71 55 53 54 51 51 41 37 34 24 24 17 27 64 58 50 46 57 56 53 48 41 38 35 32 28 22 16 14 12 6 2 357 4 355 353 354 304 244 219 208
89 90 78 64 63 52 58 41 40 48 36 27 37 31 54 69 60 54 47 43 43 49 48 46 40 36 32 28 26 17 12 9 5 3 358 352 349 345 335 340 334 243 226
90 88 81 75 70 58 55 50 34 44 38 39 40 43 61 78 72 62 55 50 47 43 35 42 41 32 31 26 22 14 14 9 4 360 358 357 350 341 338 332 327 330 248
85 82 74 80 71 60 47 44 40 57 35 30 73 71 72 68 63 67 58 51 49 45 40 35 36 34 29 27 22 17 14 9 7 4 1 358 357 352 350 343 323 314 307
78 81 74 78 70 63 44 60 74 42 56 36 88 72 72 74 72 64 55 52 50 46 39 33 31 27 28 25 22 21 17 13 8 12 8 2 358 351 350 338 340 321 303
76 80 74 80 71 73 59 47 79 47 30 22 103 81 69 72 72 72 62 54 49 48 44 42 31 28 21 23 22 22 18 16 14 14 10 9 5 357 352 352 339 330 325
82 85 92 93 90 84 64 59 77 114 58 14 108 84 156 125 65 55 55 64 51 46 45 45 35 34 26 20 24 23 19 16 16 15 18 9 8 5 1 1 350 347 341
77 83 88 91 88 86 79 68 72 98 129 34 46 124 116 157 128 31 55 66 59 57 60 46 47 39 27 17 15 23 21 18 16 16 18 15 12 10 10 3 357 351 341
90 91 95 92 89 87 85 85 73 75 98 117 77 47 57 93 137 121 23 33 77 68 45 48 49 39 28 20 22 21 24 20 18 16 17 16 14 13 11 10 8 2 352
100 96 99 96 99 97 93 96 78 72 68 87 85 120 53 51 48 118 111 351 17 74 61 47 47 25 19 8 27 14 24 21 18 17 15 16 14 12 11 10 10 9 3
99 100 104 110 107 107 100 95 84 83 81 73 73 70 90 115 51 92 99 244 98 94 79 50 34 36 10 0 357 20 22 23 18 17 17 15 14 11 11 10 9 9 9
123 138 125 110 96 111 105 94 84 87 92 90 87 82 74 78 79 58 94 149 104 108 63 72 33 20 13 354 347 21 9 25 21 18 17 17 15 13 11 12 9 9 11
147 154 122 104 100 95 88 83 82 81 85 89 99 94 95 82 77 80 108 99 114 67 84 343 47 19 9 351 351 10 355 18 24 21 20 21 17 15 15 12 11 12 12
144 133 113 98 90 81 87 86 82 78 78 73 78 89 75 45 46 35 55 68 101 120 63 15 6 29 356 352 352 359 350 18 13 22 19 18 20 17 17 16 14 12 17
125 117 100 94 92 83 86 93 82 70 85 66 74 81 64 48 57 46 43 37 42 65 106 342 27 348 2 357 359 357 349 26 7 22 23 19 19 20 17 18 18 14 16
129 118 115 102 98 97 91 91 88 90 90 85 72 80 71 57 60 48 45 40 40 34 111 82 31 344 16 358 353 348 355 13 359 23 24 23 19 21 20 19 18 19 17
117 117 109 104 102 97 94 103 103 93 101 94 83 77 62 70 56 45 45 42 29 13 98 103 7 350 15 357 333 348 357 5 354 15 20 28 20 20 23 21 21 19 19
118 110 108 112 112 110 106 98 108 107 100 95 87 89 75 73 55 45 44 44 24 59 47 82 11 323 314 13 340 339 6 357 14 20 23 20 21 21 20 21 20 20 19
115 106 107 112 115 116 118 120 121 116 109 96 95 106 98 88 90 72 64 37 56 69 63 59 42 334 13 310 323 338 340 0 19 10 357 19 6 11 14 14 19 18 19
116 124 123 123 121 128 136 134 137 131 121 105 81 106 122 116 96 93 94 58 77 72 58 53 38 6 342 346 3 294 300 309 282 21 332 340 353 344 346 353 20 17 18
137 138 147 144 144 146 153 149 146 138 124 119 123 95 83 81 101 105 103 96 101 104 77 83 1 48 323 251 299 302 306 354 342 352 353 311 5 340 336 1 21 22 20
150 149 154 154 153 152 166 165 160 141 126 125 125 112 101 79 103 137 104 93 85 86 118 135 117 235 310 269 314 339 323 339 188 290 35 317 354 330 343 356 22 20 20
159 163 166 161 153 161 159 151 132 119 112 109 115 104 98 67 89 137 113 88 68 49 35 343 61 339 145 133 16 1 323 344 222 316 3 6 327 304 323 10 18 18 15
162 171 162 155 155 149 150 140 127 120 118 118 115 105 93 79 95 123 113 107 67 28 32 83 77 58 40 35 34 2 9 11 353 309 331 341 318 310 317 324 10 17 12
165 161 157 160 160 152 148 150 138 130 127 129 120 108 109 108 100 103 102 97 84 28 46 57 26 27 28 22 38 46 352 11 340 335 278 39 324 6 341 303 333 360 1